TimeCST,TemperatureF,Dew PointF,Humidity,Sea Level PressureIn,VisibilityMPH,Wind Direction,Wind SpeedMPH,Gust SpeedMPH,PrecipitationIn,Events,Conditions,WindDirDegrees,DateUTC
12:15 AM,61.7,52.2,71,29.84,10.0,South,20.7,35.7,N/A,,Scattered Clouds,170,2012-11-11 06:15:00
12:35 AM,61.7,52.7,72,29.84,10.0,South,19.6,27.6,N/A,,Clear,170,2012-11-11 06:35:00
12:55 AM,61.7,51.8,70,29.84,10.0,South,18.4,31.1,N/A,,Clear,170,2012-11-11 06:55:00
1:15 AM,61.7,51.8,70,29.84,10.0,South,20.7,28.8,N/A,,Clear,170,2012-11-11 07:15:00
1:35 AM,61.7,51.8,70,29.85,10.0,South,19.6,31.1,N/A,,Clear,170,2012-11-11 07:35:00
1:55 AM,61.7,51.8,70,29.86,10.0,South,20.7,25.3,N/A,,Clear,170,2012-11-11 07:55:00
2:15 AM,61.7,52.0,70,29.88,10.0,South,16.1,23.0,N/A,,Scattered Clouds,180,2012-11-11 08:15:00
2:35 AM,61.7,52.2,71,29.88,10.0,South,16.1,23.0,N/A,,Scattered Clouds,170,2012-11-11 08:35:00
2:55 AM,61.7,52.5,72,29.88,10.0,South,13.8,-,N/A,,Scattered Clouds,170,2012-11-11 08:55:00
3:15 AM,61.0,52.5,74,29.87,10.0,SSE,15.0,20.7,N/A,,Mostly Cloudy,150,2012-11-11 09:15:00
3:35 AM,59.0,51.1,75,29.87,10.0,SSE,13.8,-,N/A,,Scattered Clouds,160,2012-11-11 09:35:00
3:55 AM,59.0,51.8,77,29.86,10.0,SSE,18.4,21.9,N/A,,Mostly Cloudy,150,2012-11-11 09:55:00
4:15 AM,59.0,51.4,76,29.86,10.0,SSE,16.1,-,N/A,,Overcast,150,2012-11-11 10:15:00
4:35 AM,59.0,52.0,78,29.86,10.0,SSE,15.0,-,N/A,,Overcast,150,2012-11-11 10:35:00
4:55 AM,59.0,51.8,77,29.86,10.0,SSE,16.1,21.9,N/A,,Overcast,150,2012-11-11 10:55:00
5:15 AM,59.0,51.6,76,29.85,10.0,SE,18.4,24.2,N/A,,Overcast,140,2012-11-11 11:15:00
5:35 AM,59.2,51.4,75,29.84,10.0,SE,18.4,-,N/A,,Overcast,140,2012-11-11 11:35:00
5:55 AM,59.0,51.8,77,29.83,10.0,SE,19.6,-,N/A,,Overcast,140,2012-11-11 11:55:00
6:15 AM,59.0,51.1,75,29.83,10.0,SE,18.4,26.5,N/A,,Overcast,140,2012-11-11 12:15:00
6:35 AM,59.0,51.1,75,29.82,10.0,SSE,21.9,26.5,N/A,,Overcast,150,2012-11-11 12:35:00
6:55 AM,59.2,51.3,75,29.82,10.0,SSE,20.7,26.5,N/A,,Overcast,150,2012-11-11 12:55:00
7:15 AM,59.0,51.4,76,29.82,10.0,SE,19.6,25.3,N/A,,Overcast,140,2012-11-11 13:15:00
7:35 AM,59.0,51.8,77,29.82,10.0,SE,21.9,27.6,N/A,,Overcast,140,2012-11-11 13:35:00
7:55 AM,59.2,51.8,77,29.82,10.0,SSE,21.9,28.8,N/A,,Overcast,150,2012-11-11 13:55:00
8:15 AM,59.0,51.8,77,29.81,10.0,SE,20.7,27.6,N/A,,Mostly Cloudy,140,2012-11-11 14:15:00
8:35 AM,61.5,53.8,76,29.80,10.0,SE,23.0,28.8,N/A,,Scattered Clouds,140,2012-11-11 14:35:00
8:55 AM,61.7,53.8,75,29.79,10.0,SSE,24.2,33.4,N/A,,Mostly Cloudy,150,2012-11-11 14:55:00
9:15 AM,61.7,54.1,76,29.79,10.0,SSE,26.5,32.2,N/A,,Overcast,150,2012-11-11 15:15:00
9:35 AM,61.9,54.0,75,29.79,10.0,SSE,25.3,33.4,N/A,,Mostly Cloudy,150,2012-11-11 15:35:00
9:55 AM,62.6,54.3,74,29.77,10.0,SSE,28.8,38.0,N/A,,Mostly Cloudy,150,2012-11-11 15:55:00
10:15 AM,62.2,54.1,75,29.77,10.0,SSE,28.8,39.1,N/A,,Mostly Cloudy,150,2012-11-11 16:15:00
10:35 AM,62.4,54.5,75,29.77,10.0,SSE,28.8,38.0,N/A,,Mostly Cloudy,150,2012-11-11 16:35:00
10:55 AM,64.0,55.9,75,29.75,10.0,SSE,25.3,35.7,N/A,,Mostly Cloudy,150,2012-11-11 16:55:00
11:15 AM,64.2,55.4,73,29.74,10.0,SSE,28.8,38.0,N/A,,Scattered Clouds,160,2012-11-11 17:15:00
11:35 AM,64.9,55.8,72,29.72,10.0,SSE,31.1,38.0,N/A,,Scattered Clouds,160,2012-11-11 17:35:00
11:55 AM,64.8,55.6,72,29.71,10.0,SSE,32.2,39.1,N/A,,Mostly Cloudy,160,2012-11-11 17:55:00
12:15 PM,65.3,56.3,73,29.70,10.0,SSE,26.5,35.7,N/A,,Overcast,160,2012-11-11 18:15:00
12:35 PM,64.6,55.9,74,29.70,10.0,SSE,24.2,33.4,N/A,,Overcast,160,2012-11-11 18:35:00
12:55 PM,64.0,55.6,74,29.69,10.0,SSE,23.0,33.4,N/A,,Overcast,150,2012-11-11 18:55:00
1:15 PM,64.0,55.4,73,29.68,10.0,SSE,27.6,34.5,N/A,,Overcast,150,2012-11-11 19:15:00
1:35 PM,64.0,55.6,74,29.66,10.0,SSE,25.3,34.5,N/A,,Overcast,160,2012-11-11 19:35:00
1:55 PM,64.0,55.8,74,29.66,10.0,SSE,21.9,33.4,N/A,,Overcast,160,2012-11-11 19:55:00
2:15 PM,64.0,56.5,76,29.66,10.0,South,21.9,32.2,N/A,Rain,Light Rain,170,2012-11-11 20:15:00
2:35 PM,61.7,56.8,84,29.68,7.0,South,19.6,28.8,0.04,Rain,Light Rain,180,2012-11-11 20:35:00
2:55 PM,54.3,51.4,90,29.74,2.0,West,23.0,29.9,0.12,Rain,Rain,270,2012-11-11 20:55:00
3:15 PM,54.0,51.8,92,29.77,2.0,West,10.4,-,0.01,,Drizzle,260,2012-11-11 21:15:00
3:35 PM,54.0,51.8,92,29.77,1.8,WSW,9.2,-,0.04,Rain,Light Rain,250,2012-11-11 21:35:00
3:55 PM,54.0,51.8,92,29.76,5.0,WSW,4.6,-,0.04,,Light Drizzle,240,2012-11-11 21:55:00
4:15 PM,54.0,51.8,92,29.75,7.0,WSW,6.9,-,0.01,Rain,Light Rain,250,2012-11-11 22:15:00
4:35 PM,54.0,51.8,92,29.77,7.0,SSW,4.6,-,0.03,Rain,Light Rain,210,2012-11-11 22:35:00
4:55 PM,54.0,51.8,92,29.78,7.0,SSW,6.9,-,0.06,Rain,Light Rain,210,2012-11-11 22:55:00
5:15 PM,54.0,51.8,92,29.80,5.0,SSW,10.4,-,0.03,Rain,Rain,200,2012-11-11 23:15:00
5:35 PM,52.5,49.6,90,29.80,5.0,SW,12.7,19.6,0.08,Rain,Rain,220,2012-11-11 23:35:00
5:55 PM,51.4,49.1,92,29.80,7.0,SSW,9.2,-,0.11,Rain,Rain,210,2012-11-11 23:55:00
6:15 PM,50.2,47.8,92,29.82,5.0,SSW,13.8,23.0,0.02,Rain,Rain,210,2012-11-12 00:15:00
6:35 PM,45.0,42.4,91,29.84,7.0,SW,12.7,20.7,0.04,Rain,Light Rain,230,2012-11-12 00:35:00
6:55 PM,43.7,41.4,91,29.85,7.0,WSW,15.0,19.6,0.08,Rain,Rain,240,2012-11-12 00:55:00
7:15 PM,41.7,39.6,92,29.86,7.0,WSW,15.0,24.2,0.02,Rain,Light Rain,240,2012-11-12 01:15:00
7:35 PM,41.2,39.2,93,29.86,7.0,WSW,17.3,-,0.03,Rain,Rain,240,2012-11-12 01:35:00
7:55 PM,38.7,36.1,91,29.91,5.0,WSW,16.1,25.3,0.06,Rain,Rain,250,2012-11-12 01:55:00
8:15 PM,38.7,36.1,91,29.91,4.0,WSW,15.0,21.9,0.06,Rain,Rain,240,2012-11-12 02:15:00
8:35 PM,38.7,36.1,91,29.93,4.0,WSW,13.8,-,0.13,Rain,Rain,240,2012-11-12 02:35:00
8:55 PM,35.4,33.4,92,29.94,2.5,WSW,11.5,-,0.17,Rain,Rain,240,2012-11-12 02:55:00
9:15 PM,33.8,32.0,93,29.94,2.0,WSW,8.1,-,0.01,Snow,Light Snow,240,2012-11-12 03:15:00
9:35 PM,34.5,32.5,92,29.94,10.0,WSW,10.4,-,0.02,Snow,Light Snow,240,2012-11-12 03:35:00
9:55 PM,34.9,32.9,92,29.95,10.0,WSW,10.4,18.4,0.03,,Overcast,240,2012-11-12 03:55:00
10:15 PM,34.9,32.0,89,29.96,10.0,WSW,13.8,20.7,N/A,,Overcast,250,2012-11-12 04:15:00
10:35 PM,34.3,31.6,90,29.97,10.0,WSW,18.4,-,N/A,,Overcast,250,2012-11-12 04:35:00
10:55 PM,33.8,30.2,87,29.98,10.0,WSW,15.0,20.7,N/A,,Overcast,250,2012-11-12 04:55:00
11:15 PM,33.8,30.6,88,29.97,10.0,WSW,15.0,21.9,N/A,,Overcast,250,2012-11-12 05:15:00
11:35 PM,33.8,30.2,87,29.99,10.0,WSW,16.1,20.7,N/A,,Overcast,240,2012-11-12 05:35:00
11:55 PM,33.8,29.8,85,29.99,10.0,WSW,16.1,23.0,N/A,,Overcast,250,2012-11-12 05:55:00